TimeEST,TemperatureF,Dew PointF,Humidity,Sea Level PressureIn,VisibilityMPH,Wind Direction,Wind SpeedMPH,Gust SpeedMPH,PrecipitationIn,Events,Conditions,WindDirDegrees,DateUTC
12:17 AM,46.4,44.6,93,30.02,0.8,Calm,Calm,-,N/A,,Mostly Cloudy,0,2012-12-09 05:17:00
12:30 AM,46.4,44.6,93,30.03,1.5,Calm,Calm,-,N/A,,Overcast,0,2012-12-09 05:30:00
12:40 AM,44.6,44.6,100,30.02,0.5,Calm,Calm,-,N/A,Fog,Fog,0,2012-12-09 05:40:00
12:54 AM,45.0,45.0,100,30.06,0.5,Calm,Calm,-,N/A,Fog,Fog,0,2012-12-09 05:54:00
1:02 AM,46.4,44.6,93,30.04,1.0,Calm,Calm,-,N/A,,Overcast,0,2012-12-09 06:02:00
1:23 AM,44.6,44.6,100,30.04,0.5,North,3.5,-,N/A,Fog,Fog,360,2012-12-09 06:23:00
1:48 AM,46.4,44.6,93,30.05,1.0,Calm,Calm,-,N/A,,Overcast,0,2012-12-09 06:48:00
1:54 AM,45.0,45.0,100,30.07,1.5,Calm,Calm,-,N/A,,Overcast,0,2012-12-09 06:54:00
2:10 AM,44.6,44.6,100,30.05,0.5,North,3.5,-,N/A,Fog,Fog,10,2012-12-09 07:10:00
2:23 AM,44.6,44.6,100,30.06,1.0,Calm,Calm,-,N/A,,Overcast,0,2012-12-09 07:23:00
2:42 AM,44.6,44.6,100,30.06,0.8,North,4.6,-,N/A,,Overcast,350,2012-12-09 07:42:00
2:50 AM,44.6,42.8,93,30.06,0.5,North,3.5,-,N/A,Fog,Fog,350,2012-12-09 07:50:00
2:51 AM,44.1,43.0,96,30.09,0.5,North,3.5,-,N/A,Fog,Fog,350,2012-12-09 07:51:00
3:09 AM,44.6,42.8,93,30.07,0.8,North,3.5,-,N/A,,Mist,10,2012-12-09 08:09:00
3:14 AM,44.6,42.8,93,30.06,1.2,North,5.8,-,N/A,,Scattered Clouds,10,2012-12-09 08:14:00
3:33 AM,42.8,42.8,100,30.07,1.0,North,3.5,-,N/A,,Mist,360,2012-12-09 08:33:00
3:41 AM,42.8,42.8,100,30.06,0.5,North,3.5,-,N/A,Fog,Fog,350,2012-12-09 08:41:00
3:54 AM,42.1,42.1,100,30.09,0.2,Calm,Calm,-,N/A,Fog,Fog,0,2012-12-09 08:54:00
4:14 AM,42.8,41.0,93,30.09,0.2,SSW,6.9,-,N/A,Fog,Fog,210,2012-12-09 09:14:00
4:54 AM,42.1,42.1,100,30.11,0.2,ENE,3.5,-,N/A,Fog,Fog,60,2012-12-09 09:54:00
5:27 AM,42.8,42.8,100,30.12,0.5,Calm,Calm,-,N/A,Fog,Fog,0,2012-12-09 10:27:00
5:36 AM,42.8,42.8,100,30.13,1.0,WNW,3.5,-,N/A,,Mist,300,2012-12-09 10:36:00
5:52 AM,42.8,42.8,100,30.14,1.5,Calm,Calm,-,N/A,,Scattered Clouds,0,2012-12-09 10:52:00
5:54 AM,43.0,43.0,100,30.16,4.0,Calm,Calm,-,N/A,,Partly Cloudy,0,2012-12-09 10:54:00
6:02 AM,42.8,42.8,100,30.15,2.0,Calm,Calm,-,N/A,,Scattered Clouds,0,2012-12-09 11:02:00
6:12 AM,42.8,41.0,93,30.15,2.0,North,3.5,-,N/A,,Mostly Cloudy,350,2012-12-09 11:12:00
6:35 AM,44.6,42.8,93,30.16,2.0,NE,5.8,-,N/A,,Mostly Cloudy,40,2012-12-09 11:35:00
6:54 AM,44.1,41.0,89,30.18,2.0,NNE,9.2,-,N/A,,Overcast,30,2012-12-09 11:54:00
7:38 AM,44.6,39.2,81,30.18,10.0,NNE,6.9,-,0.00,Rain,Light Rain,30,2012-12-09 12:38:00
7:54 AM,44.1,39.0,82,30.20,10.0,NE,8.1,-,0.01,Rain,Light Rain,50,2012-12-09 12:54:00
8:54 AM,43.0,39.0,86,30.25,8.0,Variable,3.5,-,0.02,Rain,Light Rain,0,2012-12-09 13:54:00
9:54 AM,43.0,41.0,93,30.25,6.0,Calm,Calm,-,0.03,Rain,Light Rain,0,2012-12-09 14:54:00
10:54 AM,43.0,39.9,89,30.24,10.0,NNE,5.8,-,0.01,Rain,Light Rain,20,2012-12-09 15:54:00
11:54 AM,44.1,39.9,85,30.21,10.0,NE,5.8,-,0.01,Rain,Light Rain,40,2012-12-09 16:54:00
12:41 PM,42.8,39.2,87,30.17,10.0,NNE,5.8,-,0.00,Rain,Light Rain,20,2012-12-09 17:41:00
12:54 PM,43.0,39.0,86,30.19,10.0,NE,5.8,-,0.00,,Overcast,40,2012-12-09 17:54:00
1:10 PM,42.8,39.2,87,30.16,10.0,NNE,5.8,-,0.00,Rain,Light Rain,20,2012-12-09 18:10:00
1:17 PM,42.8,39.2,87,30.16,10.0,NNE,5.8,-,0.00,Rain,Light Rain,30,2012-12-09 18:17:00
1:54 PM,43.0,39.9,89,30.18,10.0,NNE,4.6,-,0.00,Rain,Light Rain,30,2012-12-09 18:54:00
2:11 PM,42.8,39.2,87,30.16,9.0,NNE,5.8,-,0.00,Rain,Light Rain,30,2012-12-09 19:11:00
2:51 PM,42.8,39.2,87,30.16,2.0,NE,4.6,-,0.00,Rain,Light Rain,40,2012-12-09 19:51:00
2:54 PM,42.1,39.9,92,30.18,2.0,NE,4.6,-,0.01,Rain,Light Rain,40,2012-12-09 19:54:00
3:54 PM,42.1,41.0,96,30.18,2.0,NE,3.5,-,0.00,,Overcast,50,2012-12-09 20:54:00
4:42 PM,42.8,39.2,87,30.15,2.0,East,5.8,-,0.00,,Overcast,80,2012-12-09 21:42:00
4:54 PM,42.1,39.0,89,30.17,3.0,East,5.8,-,0.00,,Overcast,90,2012-12-09 21:54:00
5:06 PM,41.0,39.2,93,30.15,3.0,ENE,5.8,-,N/A,,Overcast,70,2012-12-09 22:06:00
5:47 PM,41.0,39.2,93,30.15,3.0,NNE,6.9,-,N/A,,Overcast,30,2012-12-09 22:47:00
5:54 PM,41.0,39.0,93,30.17,3.0,Variable,4.6,-,N/A,,Overcast,0,2012-12-09 22:54:00
6:54 PM,41.0,39.0,93,30.14,3.0,ENE,8.1,-,0.00,Rain,Light Rain,60,2012-12-09 23:54:00
7:54 PM,41.0,39.9,96,30.12,3.0,NNE,3.5,-,0.01,Rain,Light Rain,30,2012-12-10 00:54:00
8:47 PM,41.0,39.2,93,30.11,2.5,North,6.9,-,0.10,Rain,Rain,350,2012-12-10 01:47:00
8:54 PM,39.9,39.9,100,30.10,3.0,NE,5.8,-,0.11,Rain,Light Rain,50,2012-12-10 01:54:00
9:14 PM,41.0,39.2,93,30.09,3.0,Calm,Calm,-,0.01,Rain,Light Rain,0,2012-12-10 02:14:00
9:54 PM,39.9,39.9,100,30.08,3.0,ENE,4.6,-,0.01,,Overcast,60,2012-12-10 02:54:00
10:05 PM,39.2,39.2,100,30.05,2.5,NE,4.6,-,0.00,Rain,Light Rain,50,2012-12-10 03:05:00
10:29 PM,41.0,39.2,93,30.04,3.0,Calm,Calm,-,0.01,Rain,Light Rain,0,2012-12-10 03:29:00
10:42 PM,41.0,39.2,93,30.03,3.0,Calm,Calm,-,0.01,Rain,Light Rain,0,2012-12-10 03:42:00
10:54 PM,39.9,39.9,100,30.05,3.0,North,3.5,-,0.01,Rain,Light Rain,10,2012-12-10 03:54:00
11:54 PM,39.9,39.0,97,30.01,3.0,NNE,4.6,-,0.00,,Overcast,30,2012-12-10 04:54:00